Time,TemperatureF,DewpointF,PressureIn,WindDirection,WindDirectionDegrees,WindSpeedMPH,WindSpeedGustMPH,Humidity,HourlyPrecipIn,Conditions,Clouds,dailyrainin,SoftwareType,DateUTC
2013-02-06 00:13:00,35.8,19.0,30.01,North,355,0.0,1.0,50,0.00,,,0.00,weatherlink.com 1.10,2013-02-06 07:13:00,
2013-02-06 00:28:00,36.0,19.0,30.01,North,355,0.0,3.0,50,0.00,,,0.00,weatherlink.com 1.10,2013-02-06 07:28:00,
2013-02-06 00:43:00,34.8,18.0,30.00,North,355,0.0,1.0,50,0.00,,,0.00,weatherlink.com 1.10,2013-02-06 07:43:00,
2013-02-06 00:58:00,32.5,17.0,30.00,NNW,348,3.0,4.0,53,0.00,,,0.00,weatherlink.com 1.10,2013-02-06 07:58:00,
2013-02-06 01:13:00,30.8,17.0,30.00,NNW,347,0.0,4.0,57,0.00,,,0.00,weatherlink.com 1.10,2013-02-06 08:13:00,
2013-02-06 01:28:00,31.8,18.0,30.00,NNW,348,3.0,3.0,58,0.00,,,0.00,weatherlink.com 1.10,2013-02-06 08:28:00,
2013-02-06 01:43:00,33.5,18.0,30.00,North,355,3.0,4.0,54,0.00,,,0.00,weatherlink.com 1.10,2013-02-06 08:43:00,
2013-02-06 01:58:00,32.0,19.0,30.00,NNE,26,6.0,7.0,58,0.00,,,0.00,weatherlink.com 1.10,2013-02-06 08:58:00,
2013-02-06 02:13:00,31.1,18.0,29.99,NNE,31,3.0,7.0,59,0.00,,,0.00,weatherlink.com 1.10,2013-02-06 09:13:00,
2013-02-06 02:28:00,30.2,18.0,29.99,NNE,29,6.0,8.0,60,0.00,,,0.00,weatherlink.com 1.10,2013-02-06 09:28:00,
2013-02-06 02:43:00,30.3,19.0,29.99,NNE,18,6.0,8.0,62,0.00,,,0.00,weatherlink.com 1.10,2013-02-06 09:43:00,
2013-02-06 02:58:00,31.6,19.0,29.98,North,360,6.0,7.0,61,0.00,,,0.00,weatherlink.com 1.10,2013-02-06 09:58:00,
2013-02-06 03:13:00,34.5,19.0,29.98,NE,47,5.0,7.0,53,0.00,,,0.00,weatherlink.com 1.10,2013-02-06 10:13:00,
2013-02-06 03:28:00,31.1,18.0,29.98,NE,53,3.0,6.0,58,0.00,,,0.00,weatherlink.com 1.10,2013-02-06 10:28:00,
2013-02-06 03:43:00,30.3,17.0,29.98,NE,55,5.0,5.0,59,0.00,,,0.00,weatherlink.com 1.10,2013-02-06 10:43:00,
2013-02-06 03:58:00,28.5,17.0,29.98,NE,43,3.0,6.0,63,0.00,,,0.00,weatherlink.com 1.10,2013-02-06 10:58:00,
2013-02-06 04:13:00,28.3,17.0,29.98,NE,36,5.0,7.0,63,0.00,,,0.00,weatherlink.com 1.10,2013-02-06 11:13:00,
2013-02-06 04:28:00,28.0,16.0,29.98,NNE,21,5.0,7.0,62,0.00,,,0.00,weatherlink.com 1.10,2013-02-06 11:28:00,
2013-02-06 04:44:00,27.2,16.0,29.97,NNE,32,4.0,7.0,63,0.00,,,0.00,weatherlink.com 1.10,2013-02-06 11:44:00,
2013-02-06 04:59:00,27.1,16.0,29.97,NNE,22,4.0,7.0,63,0.00,,,0.00,weatherlink.com 1.10,2013-02-06 11:59:00,
2013-02-06 05:14:00,28.0,17.0,29.96,NNE,33,6.0,7.0,64,0.00,,,0.00,weatherlink.com 1.10,2013-02-06 12:14:00,
2013-02-06 05:29:00,28.1,17.0,29.96,NNE,30,5.0,6.0,63,0.00,,,0.00,weatherlink.com 1.10,2013-02-06 12:29:00,
2013-02-06 05:44:00,27.8,16.0,29.97,NNE,33,6.0,7.0,61,0.00,,,0.00,weatherlink.com 1.10,2013-02-06 12:44:00,
2013-02-06 05:59:00,27.0,16.0,29.96,NE,36,4.0,6.0,63,0.00,,,0.00,weatherlink.com 1.10,2013-02-06 12:59:00,
2013-02-06 06:14:00,27.4,17.0,29.97,NE,44,1.0,5.0,65,0.00,,,0.00,weatherlink.com 1.10,2013-02-06 13:14:00,
2013-02-06 06:29:00,26.6,17.0,29.98,NE,42,3.0,5.0,67,0.00,,,0.00,weatherlink.com 1.10,2013-02-06 13:29:00,
2013-02-06 06:44:00,26.2,17.0,29.98,NE,43,4.0,5.0,69,0.00,,,0.00,weatherlink.com 1.10,2013-02-06 13:44:00,
2013-02-06 06:59:00,25.9,17.0,29.99,NE,40,4.0,5.0,70,0.00,,,0.00,weatherlink.com 1.10,2013-02-06 13:59:00,
2013-02-06 07:14:00,26.1,18.0,30.00,NE,47,3.0,5.0,72,0.00,,,0.00,weatherlink.com 1.10,2013-02-06 14:14:00,
2013-02-06 07:29:00,27.0,19.0,30.00,NE,51,3.0,4.0,71,0.00,,,0.00,weatherlink.com 1.10,2013-02-06 14:29:00,
2013-02-06 07:44:00,28.5,19.0,30.01,NE,53,3.0,4.0,67,0.00,,,0.00,weatherlink.com 1.10,2013-02-06 14:44:00,
2013-02-06 07:59:00,29.4,19.0,30.01,NE,45,2.0,6.0,66,0.00,,,0.00,weatherlink.com 1.10,2013-02-06 14:59:00,
2013-02-06 08:14:00,30.9,20.0,30.01,NE,56,2.0,4.0,63,0.00,,,0.00,weatherlink.com 1.10,2013-02-06 15:14:00,
2013-02-06 08:29:00,32.6,20.0,30.01,NE,55,0.0,2.0,61,0.00,,,0.00,weatherlink.com 1.10,2013-02-06 15:29:00,
2013-02-06 08:45:00,35.0,20.0,30.01,ENE,57,0.0,3.0,55,0.00,,,0.00,weatherlink.com 1.10,2013-02-06 15:45:00,
2013-02-06 08:59:00,35.8,21.0,30.01,ENE,57,0.0,2.0,56,0.00,,,0.00,weatherlink.com 1.10,2013-02-06 15:59:00,
2013-02-06 09:14:00,38.1,21.0,30.02,ENE,59,1.0,3.0,51,0.00,,,0.00,weatherlink.com 1.10,2013-02-06 16:14:00,
2013-02-06 09:29:00,39.7,21.0,30.01,ENE,60,0.0,2.0,48,0.00,,,0.00,weatherlink.com 1.10,2013-02-06 16:29:00,
2013-02-06 09:44:00,40.3,21.0,30.01,ENE,57,0.0,2.0,47,0.00,,,0.00,weatherlink.com 1.10,2013-02-06 16:44:00,
2013-02-06 09:59:00,43.3,23.0,30.01,ENE,58,0.0,1.0,44,0.00,,,0.00,weatherlink.com 1.10,2013-02-06 16:59:00,
2013-02-06 10:14:00,45.0,21.0,30.01,SSW,194,7.0,8.0,39,0.00,,,0.00,weatherlink.com 1.10,2013-02-06 17:14:00,
2013-02-06 10:29:00,44.1,20.0,30.00,South,190,7.0,9.0,39,0.00,,,0.00,weatherlink.com 1.10,2013-02-06 17:29:00,
2013-02-06 10:44:00,46.0,21.0,29.99,South,181,3.0,10.0,37,0.00,,,0.00,weatherlink.com 1.10,2013-02-06 17:44:00,
2013-02-06 10:59:00,47.5,21.0,29.98,South,184,5.0,11.0,35,0.00,,,0.00,weatherlink.com 1.10,2013-02-06 17:59:00,
2013-02-06 11:14:00,49.3,21.0,29.98,SSW,209,3.0,10.0,33,0.00,,,0.00,weatherlink.com 1.10,2013-02-06 18:14:00,
2013-02-06 11:29:00,50.6,21.0,29.97,SW,223,5.0,10.0,31,0.00,,,0.00,weatherlink.com 1.10,2013-02-06 18:29:00,
2013-02-06 11:44:00,51.8,21.0,29.96,SSW,197,8.0,13.0,30,0.00,,,0.00,weatherlink.com 1.10,2013-02-06 18:44:00,
2013-02-06 12:00:00,52.7,21.0,29.95,SSW,194,12.0,17.0,29,0.00,,,0.00,weatherlink.com 1.10,2013-02-06 19:00:00,
2013-02-06 12:15:00,53.2,20.0,29.94,SSW,205,12.0,16.0,27,0.00,,,0.00,weatherlink.com 1.10,2013-02-06 19:15:00,
2013-02-06 12:30:00,54.2,21.0,29.93,SW,214,11.0,15.0,27,0.00,,,0.00,weatherlink.com 1.10,2013-02-06 19:30:00,
2013-02-06 12:45:00,54.4,22.0,29.91,SW,220,10.0,14.0,28,0.00,,,0.00,weatherlink.com 1.10,2013-02-06 19:45:00,
2013-02-06 13:00:00,55.4,23.0,29.90,SW,216,9.0,15.0,29,0.00,,,0.00,weatherlink.com 1.10,2013-02-06 20:00:00,
2013-02-06 13:15:00,56.1,24.0,29.90,SSW,210,6.0,17.0,29,0.00,,,0.00,weatherlink.com 1.10,2013-02-06 20:15:00,
2013-02-06 13:30:00,57.0,25.0,29.89,SW,218,10.0,15.0,29,0.00,,,0.00,weatherlink.com 1.10,2013-02-06 20:30:00,
2013-02-06 13:45:00,57.3,25.0,29.88,SW,227,14.0,21.0,29,0.00,,,0.00,weatherlink.com 1.10,2013-02-06 20:45:00,
2013-02-06 14:00:00,57.8,26.0,29.87,SSW,204,3.0,16.0,29,0.00,,,0.00,weatherlink.com 1.10,2013-02-06 21:00:00,
2013-02-06 14:15:00,59.0,27.0,29.86,SSW,198,7.0,17.0,29,0.00,,,0.00,weatherlink.com 1.10,2013-02-06 21:15:00,
2013-02-06 14:30:00,58.4,26.0,29.85,SSE,164,5.0,16.0,29,0.00,,,0.00,weatherlink.com 1.10,2013-02-06 21:30:00,
2013-02-06 14:45:00,59.4,28.0,29.85,SSW,213,11.0,13.0,30,0.00,,,0.00,weatherlink.com 1.10,2013-02-06 21:45:00,
2013-02-06 15:00:00,59.8,26.0,29.85,West,274,10.0,17.0,28,0.00,,,0.00,weatherlink.com 1.10,2013-02-06 22:00:00,
2013-02-06 15:15:00,58.8,27.0,29.84,WSW,241,10.0,13.0,30,0.00,,,0.00,weatherlink.com 1.10,2013-02-06 22:15:00,
2013-02-06 15:30:00,58.5,27.0,29.84,WSW,247,7.0,14.0,30,0.00,,,0.00,weatherlink.com 1.10,2013-02-06 22:30:00,
2013-02-06 15:45:00,58.7,26.0,29.84,WSW,254,7.0,13.0,29,0.00,,,0.00,weatherlink.com 1.10,2013-02-06 22:45:00,
2013-02-06 16:00:00,58.6,26.0,29.85,WSW,248,9.0,10.0,29,0.00,,,0.00,weatherlink.com 1.10,2013-02-06 23:00:00,
2013-02-06 16:15:00,58.6,26.0,29.85,WSW,248,4.0,10.0,29,0.00,,,0.00,weatherlink.com 1.10,2013-02-06 23:15:00,
2013-02-06 16:30:00,58.6,27.0,29.85,SW,226,7.0,11.0,30,0.00,,,0.00,weatherlink.com 1.10,2013-02-06 23:30:00,
2013-02-06 16:45:00,58.5,28.0,29.85,SW,216,5.0,8.0,31,0.00,,,0.00,weatherlink.com 1.10,2013-02-06 23:45:00,
2013-02-06 17:00:00,58.4,25.0,29.86,WNW,296,8.0,9.0,28,0.00,,,0.00,weatherlink.com 1.10,2013-02-07 00:00:00,
2013-02-06 17:15:00,58.1,24.0,29.86,WNW,290,7.0,14.0,27,0.00,,,0.00,weatherlink.com 1.10,2013-02-07 00:15:00,
2013-02-06 17:30:00,57.5,24.0,29.87,WNW,294,8.0,13.0,27,0.00,,,0.00,weatherlink.com 1.10,2013-02-07 00:30:00,
2013-02-06 17:45:00,56.9,23.0,29.88,NW,312,7.0,13.0,27,0.00,,,0.00,weatherlink.com 1.10,2013-02-07 00:45:00,
2013-02-06 18:00:00,56.2,23.0,29.89,NW,314,7.0,12.0,28,0.00,,,0.00,weatherlink.com 1.10,2013-02-07 01:00:00,
2013-02-06 18:15:00,55.6,23.0,29.90,WNW,294,3.0,12.0,28,0.00,,,0.00,weatherlink.com 1.10,2013-02-07 01:15:00,
2013-02-06 18:30:00,54.9,23.0,29.90,WNW,298,7.0,11.0,29,0.00,,,0.00,weatherlink.com 1.10,2013-02-07 01:30:00,
2013-02-06 18:45:00,54.3,22.0,29.91,WNW,291,5.0,12.0,29,0.00,,,0.00,weatherlink.com 1.10,2013-02-07 01:45:00,
2013-02-06 19:00:00,53.9,23.0,29.91,NW,305,9.0,12.0,30,0.00,,,0.00,weatherlink.com 1.10,2013-02-07 02:00:00,
2013-02-06 19:15:00,53.3,22.0,29.91,NW,306,12.0,12.0,30,0.00,,,0.00,weatherlink.com 1.10,2013-02-07 02:15:00,
2013-02-06 19:30:00,52.3,22.0,29.92,WNW,293,7.0,12.0,31,0.00,,,0.00,weatherlink.com 1.10,2013-02-07 02:30:00,
2013-02-06 19:45:00,51.4,23.0,29.93,NW,319,14.0,14.0,33,0.00,,,0.00,weatherlink.com 1.10,2013-02-07 02:45:00,
2013-02-06 20:00:00,51.6,23.0,29.93,NW,312,5.0,15.0,33,0.00,,,0.00,weatherlink.com 1.10,2013-02-07 03:00:00,
2013-02-06 20:15:00,51.1,23.0,29.94,NW,313,9.0,15.0,33,0.00,,,0.00,weatherlink.com 1.10,2013-02-07 03:15:00,
2013-02-06 20:30:00,50.8,23.0,29.94,NW,315,8.0,14.0,34,0.00,,,0.00,weatherlink.com 1.10,2013-02-07 03:30:00,
2013-02-06 20:45:00,50.5,23.0,29.95,NW,305,6.0,13.0,34,0.00,,,0.00,weatherlink.com 1.10,2013-02-07 03:45:00,
2013-02-06 21:00:00,49.9,23.0,29.95,NW,321,7.0,13.0,35,0.00,,,0.00,weatherlink.com 1.10,2013-02-07 04:00:00,
2013-02-06 21:15:00,49.4,23.0,29.96,NW,304,7.0,10.0,36,0.00,,,0.00,weatherlink.com 1.10,2013-02-07 04:15:00,
2013-02-06 21:30:00,49.0,24.0,29.96,WNW,300,7.0,12.0,37,0.00,,,0.00,weatherlink.com 1.10,2013-02-07 04:30:00,
2013-02-06 21:45:00,48.2,23.0,29.97,WNW,301,7.0,11.0,38,0.00,,,0.00,weatherlink.com 1.10,2013-02-07 04:45:00,
2013-02-06 22:00:00,47.4,23.0,29.97,NW,306,4.0,7.0,39,0.00,,,0.00,weatherlink.com 1.10,2013-02-07 05:00:00,
2013-02-06 22:15:00,46.6,24.0,29.97,NW,307,2.0,5.0,41,0.00,,,0.00,weatherlink.com 1.10,2013-02-07 05:15:00,
2013-02-06 22:30:00,45.9,23.0,29.98,NW,306,0.0,4.0,41,0.00,,,0.00,weatherlink.com 1.10,2013-02-07 05:30:00,
2013-02-06 22:45:00,45.0,24.0,29.98,NW,306,0.0,3.0,43,0.00,,,0.00,weatherlink.com 1.10,2013-02-07 05:45:00,
2013-02-06 23:00:00,44.7,24.0,29.98,NW,311,4.0,6.0,44,0.00,,,0.00,weatherlink.com 1.10,2013-02-07 06:00:00,
2013-02-06 23:15:00,44.9,24.0,29.99,NW,318,1.0,4.0,44,0.00,,,0.00,weatherlink.com 1.10,2013-02-07 06:15:00,
2013-02-06 23:30:00,43.7,23.0,29.99,NW,319,0.0,1.0,45,0.00,,,0.00,weatherlink.com 1.10,2013-02-07 06:30:00,
2013-02-06 23:45:00,43.0,24.0,29.99,NW,319,2.0,2.0,47,0.00,,,0.00,weatherlink.com 1.10,2013-02-07 06:45:00,